TimeCST,TemperatureF,Dew PointF,Humidity,Sea Level PressureIn,VisibilityMPH,Wind Direction,Wind SpeedMPH,Gust SpeedMPH,PrecipitationIn,Events,Conditions,WindDirDegrees,DateUTC
12:15 AM,23.0,10.4,59,30.18,10.0,South,5.8,-,N/A,,Clear,190,2013-12-13 06:15:00
12:35 AM,24.8,12.2,59,30.18,10.0,SSW,6.9,-,N/A,,Clear,210,2013-12-13 06:35:00
12:55 AM,24.8,12.2,59,30.17,10.0,SSW,5.8,-,N/A,,Clear,200,2013-12-13 06:55:00
1:15 AM,24.8,12.2,59,30.16,10.0,SSW,5.8,-,N/A,,Clear,200,2013-12-13 07:15:00
1:35 AM,21.2,12.2,68,30.16,10.0,SSW,5.8,-,N/A,,Clear,200,2013-12-13 07:35:00
1:55 AM,24.8,12.2,59,30.15,10.0,SSW,8.1,-,N/A,,Clear,200,2013-12-13 07:55:00
2:15 AM,26.6,14.0,59,30.15,10.0,SSW,8.1,-,N/A,,Clear,200,2013-12-13 08:15:00
2:35 AM,26.6,15.8,64,30.14,10.0,SSW,9.2,-,N/A,,Clear,210,2013-12-13 08:35:00
2:55 AM,26.6,15.8,64,30.14,10.0,SSW,10.4,-,N/A,,Clear,210,2013-12-13 08:55:00
3:15 AM,26.6,15.8,64,30.13,10.0,SSW,9.2,-,N/A,,Clear,210,2013-12-13 09:15:00
3:35 AM,26.6,15.8,64,30.12,10.0,SSW,10.4,-,N/A,,Clear,200,2013-12-13 09:35:00
3:55 AM,26.6,15.8,64,30.11,10.0,SSW,8.1,-,N/A,,Clear,200,2013-12-13 09:55:00
4:15 AM,26.6,17.6,69,30.11,10.0,SSW,10.4,-,N/A,,Clear,200,2013-12-13 10:15:00
4:35 AM,26.6,17.6,69,30.11,10.0,SSW,9.2,-,N/A,,Clear,200,2013-12-13 10:35:00
4:55 AM,26.6,17.6,69,30.10,10.0,SSW,9.2,-,N/A,,Clear,200,2013-12-13 10:55:00
5:15 AM,26.6,17.6,69,30.10,10.0,SSW,9.2,-,N/A,,Clear,210,2013-12-13 11:15:00
5:35 AM,26.6,17.6,69,30.11,10.0,SSW,9.2,-,N/A,,Clear,210,2013-12-13 11:35:00
5:55 AM,26.6,17.6,69,30.10,10.0,SSW,9.2,-,N/A,,Clear,200,2013-12-13 11:55:00
6:15 AM,26.6,17.6,69,30.11,10.0,SSW,10.4,-,N/A,,Clear,200,2013-12-13 12:15:00
6:35 AM,26.6,17.6,69,30.10,10.0,South,8.1,-,N/A,,Clear,190,2013-12-13 12:35:00
6:55 AM,26.6,17.6,69,30.10,10.0,South,6.9,-,N/A,,Clear,190,2013-12-13 12:55:00
7:15 AM,23.0,17.6,80,30.10,10.0,South,4.6,-,N/A,,Clear,180,2013-12-13 13:15:00
7:35 AM,24.8,17.6,74,30.10,7.0,South,8.1,-,N/A,,Clear,180,2013-12-13 13:35:00
7:55 AM,24.8,17.6,74,30.09,7.0,South,4.6,-,N/A,,Clear,170,2013-12-13 13:55:00
8:15 AM,24.8,17.6,74,30.09,7.0,South,6.9,-,N/A,,Clear,170,2013-12-13 14:15:00
8:35 AM,24.8,19.4,80,30.10,7.0,South,8.1,-,N/A,,Clear,180,2013-12-13 14:35:00
8:55 AM,26.6,19.4,74,30.10,10.0,South,9.2,-,N/A,,Clear,180,2013-12-13 14:55:00
9:15 AM,28.4,19.4,69,30.10,10.0,South,9.2,-,N/A,,Clear,180,2013-12-13 15:15:00
9:35 AM,30.2,19.4,64,30.09,10.0,South,5.8,-,N/A,,Clear,190,2013-12-13 15:35:00
9:55 AM,32.0,19.4,60,30.09,10.0,South,9.2,-,N/A,,Clear,190,2013-12-13 15:55:00
10:15 AM,33.8,19.4,56,30.08,10.0,South,6.9,-,N/A,,Clear,190,2013-12-13 16:15:00
10:35 AM,35.6,17.6,48,30.07,10.0,South,8.1,-,N/A,,Clear,190,2013-12-13 16:35:00
10:55 AM,35.6,17.6,48,30.06,10.0,South,8.1,-,N/A,,Scattered Clouds,180,2013-12-13 16:55:00
11:15 AM,35.6,19.4,52,30.05,10.0,South,8.1,-,N/A,,Mostly Cloudy,190,2013-12-13 17:15:00
11:35 AM,35.6,17.6,48,30.03,10.0,South,8.1,-,N/A,,Scattered Clouds,190,2013-12-13 17:35:00
11:55 AM,37.4,17.6,45,30.03,10.0,SSW,11.5,-,N/A,,Clear,200,2013-12-13 17:55:00
12:15 PM,37.4,17.6,45,30.03,10.0,South,9.2,-,N/A,,Scattered Clouds,190,2013-12-13 18:15:00
12:35 PM,37.4,17.6,45,30.01,10.0,South,9.2,-,N/A,,Mostly Cloudy,190,2013-12-13 18:35:00
12:55 PM,35.6,17.6,48,30.01,10.0,South,6.9,-,N/A,,Mostly Cloudy,180,2013-12-13 18:55:00
1:15 PM,35.6,17.6,48,30.01,10.0,South,8.1,-,N/A,,Overcast,180,2013-12-13 19:15:00
1:35 PM,35.6,19.4,52,30.00,10.0,South,10.4,-,N/A,,Overcast,180,2013-12-13 19:35:00
1:55 PM,32.0,26.6,80,29.99,2.5,South,6.9,-,0.01,Rain,Rain,170,2013-12-13 19:55:00
2:15 PM,30.2,26.6,86,29.99,3.0,South,5.8,-,0.01,Snow,Light Snow,170,2013-12-13 20:15:00
2:35 PM,30.2,26.6,86,30.00,2.5,South,5.8,-,0.01,Snow,Light Snow,180,2013-12-13 20:35:00
2:55 PM,30.2,26.6,86,29.99,2.0,South,3.5,-,0.01,Snow,Light Snow,170,2013-12-13 20:55:00
3:15 PM,30.2,26.6,86,30.00,0.8,South,4.6,-,N/A,Snow,Light Snow,170,2013-12-13 21:15:00
3:35 PM,30.2,26.6,86,30.00,1.0,SSE,5.8,-,N/A,Snow,Light Snow,160,2013-12-13 21:35:00
3:55 PM,30.2,28.4,93,30.00,0.8,SE,4.6,-,N/A,Snow,Light Snow,140,2013-12-13 21:55:00
4:15 PM,30.2,28.4,93,30.00,0.8,SE,4.6,-,N/A,Snow,Light Snow,130,2013-12-13 22:15:00
4:35 PM,30.2,28.4,93,29.99,1.5,ESE,5.8,-,N/A,Snow,Light Snow,110,2013-12-13 22:35:00
4:55 PM,30.2,28.4,93,30.00,1.0,ESE,3.5,-,N/A,Snow,Snow,110,2013-12-13 22:55:00
5:15 PM,30.2,28.4,93,30.00,1.8,ESE,3.5,-,N/A,Snow,Light Snow,120,2013-12-13 23:15:00
5:35 PM,30.2,28.4,93,30.00,2.5,ESE,3.5,-,N/A,Snow,Light Snow,120,2013-12-13 23:35:00
5:55 PM,30.2,28.4,93,30.00,1.5,East,4.6,-,N/A,Snow,Light Snow,90,2013-12-13 23:55:00
6:15 PM,30.2,28.4,93,30.00,1.0,East,4.6,-,N/A,Snow,Light Snow,90,2013-12-14 00:15:00
6:35 PM,30.2,28.4,93,30.00,0.8,East,5.8,-,N/A,Snow,Snow,80,2013-12-14 00:35:00
6:55 PM,30.2,28.4,93,30.00,0.8,ENE,5.8,-,N/A,Snow,Snow,70,2013-12-14 00:55:00
7:15 PM,30.2,28.4,93,30.00,0.8,East,5.8,-,N/A,Snow,Snow,80,2013-12-14 01:15:00
7:35 PM,30.2,28.4,93,30.00,1.2,East,5.8,-,N/A,Snow,Snow,90,2013-12-14 01:35:00
7:55 PM,30.2,28.4,93,30.00,1.8,East,5.8,-,N/A,,Overcast,80,2013-12-14 01:55:00
8:15 PM,30.2,28.4,93,29.99,1.5,ENE,6.9,-,N/A,Snow,Light Snow,70,2013-12-14 02:15:00
8:35 PM,30.2,28.4,93,29.99,1.5,ENE,5.8,-,N/A,Snow,Light Snow,70,2013-12-14 02:35:00
8:55 PM,30.2,28.4,93,29.99,1.5,ENE,8.1,-,N/A,Snow,Light Snow,70,2013-12-14 02:55:00
9:15 PM,30.2,28.4,93,29.99,1.2,ENE,8.1,-,N/A,Snow,Light Snow,70,2013-12-14 03:15:00
9:35 PM,30.2,28.4,93,29.98,1.2,ENE,6.9,-,N/A,Snow,Light Snow,70,2013-12-14 03:35:00
9:55 PM,30.2,28.4,93,29.98,1.8,ENE,6.9,-,N/A,Snow,Light Snow,70,2013-12-14 03:55:00
10:15 PM,30.2,28.4,93,29.98,1.2,ENE,6.9,-,N/A,Snow,Light Snow,60,2013-12-14 04:15:00
10:35 PM,30.2,28.4,93,29.98,1.2,ENE,6.9,-,N/A,Snow,Light Snow,60,2013-12-14 04:35:00
10:55 PM,30.2,28.4,93,29.98,1.2,ENE,6.9,-,N/A,Snow,Light Snow,60,2013-12-14 04:55:00
11:15 PM,30.2,28.4,93,29.98,1.2,ENE,6.9,-,N/A,Snow,Light Snow,60,2013-12-14 05:15:00
11:35 PM,30.2,28.4,93,29.98,1.8,ENE,8.1,-,N/A,Snow,Light Snow,70,2013-12-14 05:35:00
11:55 PM,30.2,28.4,93,29.98,1.5,ENE,6.9,-,N/A,Snow,Light Snow,60,2013-12-14 05:55:00